Location: Maccacari
(45.1333°N, 11.1333°E)
Time: 02:48:48
(UTC+00:00)

Altair - Pass Details

Date: 26 January 2021
Orbit: 1501 x 1682 km, 47.2° (Epoch: 01 March)

Event Time Altitude Azimuth Distance (km) Brightness Sun altitude
Rises 06:14:23 0° 266° (W) 4,893 - -5.3°
Exits shadow 06:14:44 - 266° (W) 4,783 9.5 -5.2°
Reaches altitude 10° 06:17:31 10° 267° (W) 3,921 9.1 -4.8°
Maximum altitude 06:27:41 80° 355° (N) 1,707 7.8 -3.1°
Drops below altitude 10° 06:37:54 10° 84° (E) 3,931 10.7 -1.5°
Sets 06:41:03 0° 85° (E) 4,907 11.3 -1.0°
